N361MK KCNO-KLAX

Flight info

Callsign N361MK
Flight time 0h 25m
Altitude 4000
Route DIRECT
Aircraft PA28/L-G/S

Departure

Time 2026-05-04 00:07
Airport Chino Airport (KCNO)

Arrival

Time 2026-05-04 00:32
Airport Los Angeles International Airport (KLAX)
Time Latitude Longitude Altitude Speed Heading
2026-05-03 23:50 33.97747 -117.63644 635 ft 0 kts 313°
2026-05-04 00:01 33.97745 -117.63665 635 ft 3 kts 205°
2026-05-04 00:01 33.97721 -117.63656 635 ft 6 kts 137°
2026-05-04 00:01 33.97694 -117.63603 636 ft 9 kts 106°
2026-05-04 00:02 33.97691 -117.63581 634 ft 0 kts 95°
2026-05-04 00:02 33.97697 -117.63463 638 ft 28 kts 94°
2026-05-04 00:02 33.97693 -117.63270 641 ft 15 kts 88°
2026-05-04 00:02 33.97695 -117.63142 641 ft 15 kts 92°
2026-05-04 00:03 33.97674 -117.63087 641 ft 0 kts 149°
2026-05-04 00:06 33.97626 -117.63092 641 ft 26 kts 213°
2026-05-04 00:06 33.97577 -117.63469 639 ft 67 kts 268°
2026-05-04 00:06 33.97554 -117.64088 777 ft 78 kts 269°
2026-05-04 00:07 33.97537 -117.64745 1035 ft 76 kts 270°
2026-05-04 00:07 33.97529 -117.65354 1309 ft 75 kts 271°
2026-05-04 00:07 33.97540 -117.65988 1559 ft 74 kts 270°
2026-05-04 00:07 33.97535 -117.66577 1812 ft 74 kts 263°
2026-05-04 00:08 33.97564 -117.67183 2081 ft 70 kts 272°
2026-05-04 00:08 33.97511 -117.67795 2245 ft 77 kts 264°
2026-05-04 00:08 33.97504 -117.68429 2459 ft 77 kts 270°
2026-05-04 00:08 33.97472 -117.69053 2750 ft 70 kts 264°
2026-05-04 00:09 33.97493 -117.69685 2890 ft 77 kts 272°
2026-05-04 00:09 33.97586 -117.70330 2823 ft 74 kts 268°
2026-05-04 00:09 33.97601 -117.70956 2724 ft 77 kts 278°
2026-05-04 00:09 33.97688 -117.71576 2619 ft 74 kts 263°
2026-05-04 00:10 33.97666 -117.72185 2642 ft 70 kts 264°
2026-05-04 00:10 33.97635 -117.72797 2627 ft 77 kts 258°
2026-05-04 00:10 33.97575 -117.73442 2651 ft 77 kts 261°
2026-05-04 00:10 33.97479 -117.74091 2685 ft 78 kts 259°
2026-05-04 00:11 33.97437 -117.74714 2939 ft 67 kts 258°
2026-05-04 00:11 33.97367 -117.75279 2942 ft 73 kts 261°
2026-05-04 00:11 33.97322 -117.75946 3019 ft 84 kts 260°
2026-05-04 00:11 33.97251 -117.76707 3035 ft 99 kts 262°
2026-05-04 00:12 33.97176 -117.77570 3042 ft 110 kts 260°
2026-05-04 00:12 33.97144 -117.78506 3066 ft 116 kts 261°
2026-05-04 00:12 33.97076 -117.79471 3106 ft 115 kts 270°
2026-05-04 00:12 33.97091 -117.80389 3008 ft 105 kts 264°
2026-05-04 00:13 33.97132 -117.81259 2985 ft 104 kts 264°
2026-05-04 00:13 33.97081 -117.82099 2931 ft 97 kts 269°
2026-05-04 00:13 33.97129 -117.82904 2856 ft 94 kts 264°
2026-05-04 00:13 33.97091 -117.83709 2971 ft 99 kts 267°
2026-05-04 00:14 33.97103 -117.84538 2924 ft 100 kts 265°
2026-05-04 00:14 33.97006 -117.85381 2873 ft 100 kts 262°
2026-05-04 00:14 33.96936 -117.86203 2998 ft 97 kts 251°
2026-05-04 00:14 33.96769 -117.87026 2950 ft 105 kts 256°
2026-05-04 00:15 33.96662 -117.87888 3027 ft 106 kts 262°
2026-05-04 00:15 33.96536 -117.88743 2985 ft 101 kts 257°
2026-05-04 00:15 33.96422 -117.89570 2921 ft 100 kts 259°
2026-05-04 00:15 33.96303 -117.90353 2854 ft 93 kts 255°
2026-05-04 00:16 33.96198 -117.91154 2896 ft 97 kts 272°
2026-05-04 00:16 33.96330 -117.91961 2949 ft 102 kts 278°
2026-05-04 00:16 33.96529 -117.92790 2939 ft 106 kts 290°
2026-05-04 00:16 33.96776 -117.93599 2881 ft 103 kts 290°
2026-05-04 00:17 33.97049 -117.94402 2919 ft 103 kts 289°
2026-05-04 00:17 33.97367 -117.95178 2930 ft 100 kts 292°
2026-05-04 00:17 33.97616 -117.95950 2863 ft 101 kts 285°
2026-05-04 00:17 33.97871 -117.96732 2930 ft 101 kts 287°
2026-05-04 00:18 33.98126 -117.97510 2953 ft 101 kts 284°
2026-05-04 00:18 33.98378 -117.98304 2880 ft 102 kts 281°
2026-05-04 00:18 33.98641 -117.99078 2894 ft 96 kts 283°
2026-05-04 00:18 33.98890 -117.99841 2870 ft 99 kts 286°
2026-05-04 00:19 33.99152 -118.00591 2867 ft 101 kts 290°
2026-05-04 00:19 33.99423 -118.01357 2937 ft 99 kts 288°
2026-05-04 00:19 33.99667 -118.02144 2996 ft 100 kts 279°
2026-05-04 00:19 33.99619 -118.03000 2977 ft 108 kts 245°
2026-05-04 00:20 33.99286 -118.03794 3047 ft 100 kts 242°
2026-05-04 00:20 33.98974 -118.04524 2937 ft 98 kts 241°
2026-05-04 00:20 33.98682 -118.05271 2938 ft 101 kts 246°
2026-05-04 00:20 33.98381 -118.06056 2984 ft 103 kts 244°
2026-05-04 00:21 33.98085 -118.06833 3002 ft 103 kts 243°
2026-05-04 00:21 33.97775 -118.07595 3019 ft 99 kts 244°
2026-05-04 00:21 33.97497 -118.08376 2982 ft 104 kts 246°
2026-05-04 00:21 33.97180 -118.09150 3039 ft 102 kts 241°
2026-05-04 00:22 33.96863 -118.09907 3035 ft 102 kts 240°
2026-05-04 00:22 33.96563 -118.10684 3013 ft 102 kts 252°
2026-05-04 00:22 33.96463 -118.11542 2981 ft 104 kts 261°
2026-05-04 00:22 33.96414 -118.12399 2982 ft 102 kts 264°
2026-05-04 00:23 33.96362 -118.13263 2971 ft 104 kts 263°
2026-05-04 00:23 33.96286 -118.14131 3012 ft 102 kts 259°
2026-05-04 00:23 33.96180 -118.14978 2972 ft 104 kts 260°
2026-05-04 00:23 33.96115 -118.15840 2991 ft 102 kts 261°
2026-05-04 00:24 33.95990 -118.16681 2988 ft 102 kts 258°
2026-05-04 00:24 33.95903 -118.17533 2988 ft 104 kts 262°
2026-05-04 00:24 33.95824 -118.18380 2910 ft 102 kts 263°
2026-05-04 00:24 33.95764 -118.19211 2860 ft 96 kts 257°
2026-05-04 00:25 33.95660 -118.20019 2727 ft 101 kts 259°
2026-05-04 00:25 33.95572 -118.20876 2635 ft 99 kts 261°
2026-05-04 00:25 33.95482 -118.21704 2514 ft 102 kts 260°
2026-05-04 00:25 33.95359 -118.22526 2442 ft 97 kts 257°
2026-05-04 00:26 33.95272 -118.23310 2429 ft 92 kts 261°
2026-05-04 00:26 33.95187 -118.24068 2395 ft 90 kts 259°
2026-05-04 00:26 33.95105 -118.24817 2344 ft 92 kts 259°
2026-05-04 00:26 33.95033 -118.25585 2318 ft 94 kts 258°
2026-05-04 00:27 33.94944 -118.26387 2239 ft 98 kts 262°
2026-05-04 00:27 33.94876 -118.27204 2145 ft 95 kts 259°
2026-05-04 00:27 33.94790 -118.27900 2029 ft 83 kts 256°
2026-05-04 00:27 33.94713 -118.28561 1878 ft 72 kts 261°
2026-05-04 00:28 33.94659 -118.29120 1722 ft 65 kts 261°
2026-05-04 00:28 33.94592 -118.29655 1546 ft 65 kts 261°
2026-05-04 00:28 33.94549 -118.30192 1398 ft 67 kts 261°
2026-05-04 00:28 33.94503 -118.30742 1324 ft 67 kts 261°
2026-05-04 00:29 33.94442 -118.31297 1319 ft 67 kts 262°
2026-05-04 00:29 33.94360 -118.31861 1312 ft 71 kts 263°
2026-05-04 00:29 33.94304 -118.32443 1228 ft 70 kts 261°
2026-05-04 00:29 33.94256 -118.33007 1069 ft 69 kts 262°
2026-05-04 00:30 33.94215 -118.33572 945 ft 68 kts 262°
2026-05-04 00:30 33.94146 -118.34139 821 ft 69 kts 262°
2026-05-04 00:30 33.94072 -118.34702 696 ft 68 kts 264°
2026-05-04 00:30 33.94006 -118.35269 627 ft 70 kts 266°
2026-05-04 00:31 33.93977 -118.35819 553 ft 62 kts 268°
2026-05-04 00:31 33.93928 -118.36340 422 ft 65 kts 265°
2026-05-04 00:31 33.93863 -118.36859 389 ft 62 kts 268°
2026-05-04 00:31 33.93822 -118.37362 347 ft 62 kts 266°
2026-05-04 00:32 33.93775 -118.37898 232 ft 63 kts 265°
2026-05-04 00:32 33.93743 -118.38236 159 ft 59 kts 264°
2026-05-04 00:32 33.93702 -118.38628 120 ft 37 kts 263°
2026-05-04 00:32 33.93676 -118.38868 120 ft 23 kts 262°
2026-05-04 00:33 33.93662 -118.39014 120 ft 13 kts 264°
2026-05-04 00:33 33.93647 -118.39148 120 ft 7 kts 262°
2026-05-04 00:33 33.93639 -118.39226 120 ft 11 kts 262°
2026-05-04 00:34 33.93628 -118.39329 120 ft 14 kts 263°
2026-05-04 00:34 33.93616 -118.39456 120 ft 17 kts 263°
2026-05-04 00:34 33.93600 -118.39601 120 ft 18 kts 263°
2026-05-04 00:34 33.93581 -118.39772 120 ft 28 kts 263°
2026-05-04 00:35 33.93556 -118.39991 120 ft 25 kts 257°
2026-05-04 00:35 33.93494 -118.40188 120 ft 29 kts 242°
2026-05-04 00:35 33.93392 -118.40410 118 ft 27 kts 244°
2026-05-04 00:35 33.93293 -118.40549 120 ft 11 kts 228°
2026-05-04 00:36 33.93283 -118.40560 120 ft 0 kts 222°